This is the latest recevied weather packets stored in our database for station/object N2WH. If no packets are shown the sender has not sent any weather packets the latest 10 day(s).
| Time | Temp. | Humidity | Pressure | Rain* | Wind** | Luminosity | Snow |
|---|---|---|---|---|---|---|---|
| 1777565965 | 11.67° C | 96% | 1008.2 hPa | 0 mm | - | 94 W/m² | - |
| 1777565660 | 11.67° C | 99% | 1008.2 hPa | 0 mm | - | 115 W/m² | - |
| 1777565357 | 11.67° C | 99% | 1008.1 hPa | 0 mm | - | 160 W/m² | - |
| 1777565053 | 11.67° C | 99% | 1008.1 hPa | 1.27 mm | - | 194 W/m² | - |
| 1777564749 | 11.11° C | 99% | 1008.3 hPa | 1.27 mm | - | 466 W/m² | - |
| 1777564444 | 11.11° C | 99% | 1008.4 hPa | 0 mm | - | 716 W/m² | - |
| 1777564140 | 10.56° C | 99% | 1008.6 hPa | 0 mm | - | 260 W/m² | - |
| 1777563836 | 11.11° C | 99% | 1008.5 hPa | 0 mm | - | 273 W/m² | - |
| 1777563533 | 11.11° C | 99% | 1008.7 hPa | 0 mm | - | 157 W/m² | - |
| 1777563232 | 10.56° C | 99% | 1008.6 hPa | 0 mm | - | 219 W/m² | - |
| 1777562929 | 10.56° C | 99% | 1008.7 hPa | 0 mm | - | 151 W/m² | - |
| 1777562624 | 10.56° C | 99% | 1008.5 hPa | 0 mm | - | 104 W/m² | - |
| 1777562324 | 10° C | 99% | 1008.6 hPa | 0 mm | - | 69 W/m² | - |
| 1777562021 | 10.56° C | 99% | 1008.4 hPa | 0 mm | - | 91 W/m² | - |
| 1777561718 | 10.56° C | 99% | 1008.7 hPa | 0 mm | - | 89 W/m² | - |
| 1777561413 | 10.56° C | 99% | 1008.6 hPa | 0 mm | - | 117 W/m² | - |
| 1777561109 | 10.56° C | 99% | 1008.6 hPa | 0 mm | - | 142 W/m² | - |
| 1777560804 | 10.56° C | 99% | 1008.6 hPa | 0 mm | - | 128 W/m² | - |
| 1777560502 | 10° C | 99% | 1008.7 hPa | 0 mm | - | 111 W/m² | - |
| 1777560200 | 10° C | 99% | 1008.5 hPa | 0 mm | - | 123 W/m² | - |
| 1777559896 | 10° C | 99% | 1008.7 hPa | 0 mm | - | 120 W/m² | - |
| 1777559591 | 10° C | 99% | 1008.3 hPa | 0 mm | - | 118 W/m² | - |
| 1777559289 | 10° C | 99% | 1008.4 hPa | 0 mm | - | 100 W/m² | - |
| 1777558985 | 10° C | 99% | 1008.5 hPa | 0 mm | - | 79 W/m² | - |
| 1777558681 | 10° C | 99% | 1008.4 hPa | 0 mm | - | 115 W/m² | - |
* Rain latest hour (hover to see other rain measurements)
** Current wind speed in m/s (hover to see current wind gust speed)